DECAYED

FENGYUN 1C DEB, 31934 (Decayed)

Orbit data source: Space-Track

FENGYUN 1C DEB, 31934 was space debris in SSO originally from a launch on Mon, 10 May 1999 UTC launched from the Taiyaun Space Center, China (TSC). Fengyun 1C debris stems from the Chinese weather satellite Fengyun-1C, which was intentionally destroyed by a Chinese anti-satellite missile in 2007. This event dramatically increased the amount of space debris, with thousands of trackable fragments posing hazards to satellites and human spaceflight. The Fengyun 1C debris cloud has become a focal point in discussions about space sustainability and the need for international regulations to prevent the creation of new debris.

Not visible in the next 10 days
Identifier
31934, 1999-025CMK
Orbit
Decayed
Country
Flag of CNCN / PRC
Related business
Manufacturer
Unknown
Mission
Decayed spacecraft
Bus & Motor
Unknown
Mass
Unknown
Launch date (UTC)
1999-05-10 (27 years ago)
Launch vehicle
Unknown
Launch site
Taiyaun Space Center, China (TSC)
Object type
Payload
Rocket body
Debris
Shape & HBR
Unknown shape, 0.1 m
Radar Cross Section
Small (<0.1 m²)

Expand to show TLE details & history
Last TLE update: 2 months ago

TLE from 2 months ago
0 FENGYUN 1C DEB
1 31934U 99025CMK 26200.98613419  .00730143  00000-0  52714-2 0  9995
2 31934  98.8353 296.3723 0021441 239.2591 120.6556 15.71164506641904
Epoch: 2026-07-19T23:40Z
TLE epoch observation values (Epoch: 2026-07-19T23:40:01.994Z)
Latitude
0.00003°
Longitude
3.58732°
Altitude
366.067 km
Speed
7.686 km/s
True Right ascension
19h 45m 29s
True Declination
0° 00' 00"
Sunlit
Object was in full shadow at epoch
Visualization orbit readout
Latitude
Unknown
Longitude
Unknown
Altitude
Unknown
Speed
Unknown
Apparent Right ascension
Unknown
Apparent Declination
Unknown
Sunlit
N/A
Visualization observer readout
Local Sidereal Time
01:58:39
Azimuth
Unknown
Elevation
Unknown
Doppler factor
Unknown
Orbital elements
Apogee altitude
366.965 km
Perigee altitude
338.103 km
Semi-major axis
6,730.671 km
Eccentricity
0.00214
Inclination
98.8353°
RAAN
296.3723°
Arg. of periapsis
239.2591°
True anomaly
120.86667°
Mean anomaly
120.6556°
Eccentric anomaly
120.76116°
Mean motion
3.93057 °/min
Orbital period
91.59 mins
BSTAR
0.0052714
Loading maneuver chart data...
Computing Atmospheric mass density...

Documentation

Showing up to 5 results
|